Ruidoso, NM

7:58 AM MDT on October 19, 2017 (GMT -0600)
Sierra Blanca Regional

Weather History for KSRR - January, 2013

Change the Weather History Date:

Friday, January 11, 2013

  Actual Average Record
Temperature  
Mean Temperature 30 °F -  
Max Temperature 44 °F 47 °F 66 °F (2000)
Min Temperature 17 °F 28 °F 10 °F (2011)
Degree Days  
Heating Degree Days 34    
Moisture  
Dew Point 11 °F    
Average Humidity 36    
Maximum Humidity 48    
Minimum Humidity 25    
Precipitation  
Precipitation 0.00 in - - ()
Sea Level Pressure  
Sea Level Pressure 29.75 in    
Wind  
Wind Speed 29 mph (WSW)    
Max Wind Speed 46 mph    
Max Gust Speed 66 mph    
Visibility 9 miles    
Events      
Averages and records for this station are not official NWS values.
T = Trace of Precipitation, MM = Missing Value Source: NWS Daily Summary

Daily Weather History Graph

Daily Weather History Graph

Search for Another Location

Airport or City:

Trip Planner

Search our weather history database for the weather conditions in past years. The results will help you decide how hot, cold, wet, or windy it might be!

Date:

Astronomy

Jan. 11, 2013 Rise Set
Actual Time 7:06 AM MST 5:13 PM MST
Civil Twilight 6:39 AM MST 5:41 PM MST
Nautical Twilight 6:09 AM MST 6:11 PM MST
Astronomical Twilight 5:39 AM MST 6:41 PM MST
Moon 6:44 AM MST (1/11) 5:31 PM MST (1/11)
Length of Visible Light 11h 01m
Length of Day
10h 07m
Waning Crescent, 0% of the Moon is Illuminated
Jan 11
Waning Crescent
Jan 11
New
Jan 18
First Quarter
Jan 26
Full
Feb 3
Last Quarter

Hourly Weather History & Observations

Time (MST) Temp. Windchill Dew Point Humidity Pressure Visibility Wind Dir Wind Speed Gust Speed Precip Events Conditions
12:15 AM 42.8 °F 33.8 °F 17.6 °F 36% 29.82 in 10.0 mi WSW 21.9 mph 36.8 mph N/A   Clear
12:35 AM 41.0 °F 30.0 °F 15.8 °F 36% 29.79 in 10.0 mi WSW 28.8 mph 38.0 mph N/A   Clear
12:55 AM 42.8 °F 31.9 °F 15.8 °F 34% 29.77 in 10.0 mi WSW 32.2 mph 48.3 mph N/A   Clear
1:15 AM 42.8 °F 33.5 °F 15.8 °F 34% 29.77 in 10.0 mi WSW 23.0 mph 39.1 mph N/A   Clear
1:35 AM 44.6 °F 34.1 °F 15.8 °F 31% 29.77 in 10.0 mi WSW 34.5 mph 48.3 mph N/A   Clear
1:55 AM 44.6 °F 33.2 °F 14.0 °F 29% 29.74 in 10.0 mi SW 41.4 mph 58.7 mph N/A   Clear
2:15 AM 44.6 °F 33.6 °F 14.0 °F 29% 29.73 in 10.0 mi WSW 38.0 mph 55.2 mph N/A   Clear
2:35 AM 44.6 °F 33.2 °F 14.0 °F 29% 29.71 in 10.0 mi WSW 41.4 mph 64.4 mph N/A   Clear
2:55 AM 42.8 °F 31.1 °F 14.0 °F 31% 29.72 in 10.0 mi WSW 38.0 mph 59.8 mph N/A   Clear
3:15 AM 42.8 °F 32.3 °F 14.0 °F 31% 29.73 in 10.0 mi SW 29.9 mph 46.0 mph N/A   Clear
3:35 AM 42.8 °F 31.9 °F 15.8 °F 34% 29.71 in 10.0 mi SW 32.2 mph 44.9 mph N/A   Clear
3:55 AM 41.0 °F 29.3 °F 15.8 °F 36% 29.69 in 10.0 mi SW 33.4 mph 49.5 mph N/A   Clear
4:15 AM 41.0 °F 28.6 °F 14.0 °F 33% 29.68 in 10.0 mi SW 38.0 mph 59.8 mph N/A   Clear
4:35 AM 41.0 °F 28.5 °F 15.8 °F 36% 29.68 in 10.0 mi WSW 39.1 mph 49.5 mph N/A   Clear
4:55 AM 41.0 °F 28.0 °F 14.0 °F 33% 29.69 in 10.0 mi WSW 42.6 mph 56.4 mph N/A   Clear
5:15 AM 41.0 °F 29.0 °F 14.0 °F 33% 29.68 in 10.0 mi WSW 35.7 mph 49.5 mph N/A   Clear
5:35 AM 41.0 °F 29.5 °F 14.0 °F 33% 29.68 in 10.0 mi SW 32.2 mph 49.5 mph N/A   Clear
5:55 AM 41.0 °F 29.3 °F 15.8 °F 36% 29.68 in 10.0 mi SW 33.4 mph 50.6 mph N/A   Clear
6:15 AM 39.2 °F 27.0 °F 15.8 °F 39% 29.70 in 10.0 mi SW 32.2 mph 49.5 mph N/A   Clear
6:35 AM 39.2 °F 27.4 °F 15.8 °F 39% 29.71 in 10.0 mi SW 29.9 mph 42.6 mph N/A   Clear
6:55 AM 39.2 °F 26.8 °F 15.8 °F 39% 29.72 in 10.0 mi SW 33.4 mph 47.2 mph N/A   Clear
7:15 AM 37.4 °F 26.1 °F 15.8 °F 41% 29.73 in 10.0 mi SW 24.2 mph 48.3 mph N/A   Clear
7:35 AM 37.4 °F 23.6 °F 14.0 °F 38% 29.73 in 10.0 mi SW 38.0 mph 49.5 mph N/A   Clear
7:55 AM 39.2 °F 26.6 °F 14.0 °F 36% 29.74 in 10.0 mi SW 34.5 mph 46.0 mph N/A   Clear
8:15 AM 39.2 °F 26.1 °F 10.4 °F 31% 29.74 in 10.0 mi WSW 38.0 mph 56.4 mph N/A   Clear
8:35 AM 39.2 °F 27.2 °F 12.2 °F 33% 29.74 in 10.0 mi WSW 31.1 mph 48.3 mph N/A   Clear
8:55 AM 39.2 °F 26.5 °F 14.0 °F 36% 29.74 in 8.0 mi WSW 35.7 mph 51.8 mph N/A   Clear
9:15 AM 39.2 °F 25.2 °F 15.8 °F 39% 29.74 in 5.0 mi WSW 44.9 mph 62.1 mph N/A   Haze
9:35 AM 39.2 °F 25.1 °F 17.6 °F 42% 29.74 in 5.0 mi WSW 46.0 mph 62.1 mph N/A   Haze
9:55 AM 39.2 °F 25.4 °F 19.4 °F 45% 29.75 in 10.0 mi WSW 43.7 mph 56.4 mph N/A   Clear
10:15 AM 39.2 °F 25.4 °F 19.4 °F 45% 29.75 in 10.0 mi WSW 43.7 mph 65.6 mph N/A   Clear
10:35 AM 37.4 °F 24.4 °F 19.4 °F 48% 29.77 in 10.0 mi West 33.4 mph 47.2 mph N/A   Scattered Clouds
10:55 AM 37.4 °F 25.2 °F 19.4 °F 48% 29.76 in 10.0 mi WSW 28.8 mph 43.7 mph N/A   Mostly Cloudy
11:15 AM 37.4 °F 24.4 °F 19.4 °F 48% 29.74 in 10.0 mi WSW 33.4 mph 46.0 mph N/A   Mostly Cloudy
11:35 AM 37.4 °F 24.4 °F 19.4 °F 48% 29.73 in 10.0 mi WSW 33.4 mph 51.8 mph N/A   Partly Cloudy
11:55 AM 37.4 °F 23.6 °F 19.4 °F 48% 29.72 in 10.0 mi WSW 38.0 mph 52.9 mph N/A   Clear
12:15 PM 37.4 °F 24.6 °F 17.6 °F 45% 29.72 in 10.0 mi West 32.2 mph 49.5 mph N/A   Clear
12:35 PM 39.2 °F 26.3 °F 15.8 °F 39% 29.70 in 10.0 mi WSW 36.8 mph 54.1 mph N/A   Clear
12:55 PM 39.2 °F 26.0 °F 14.0 °F 36% 29.69 in 10.0 mi WSW 39.1 mph 59.8 mph N/A   Clear
1:15 PM 39.2 °F 27.8 °F 14.0 °F 36% 29.71 in 10.0 mi West 27.6 mph 38.0 mph N/A   Clear
1:35 PM 39.2 °F 27.2 °F 14.0 °F 36% 29.71 in 10.0 mi WSW 31.1 mph 57.5 mph N/A   Clear
1:55 PM 39.2 °F 27.8 °F 14.0 °F 36% 29.72 in 10.0 mi WSW 27.6 mph 49.5 mph N/A   Clear
2:15 PM 39.2 °F 26.3 °F 14.0 °F 36% 29.71 in 7.0 mi WSW 36.8 mph 50.6 mph N/A   Clear
2:35 PM 39.2 °F 27.6 °F 14.0 °F 36% 29.73 in 5.0 mi WSW 28.8 mph 40.3 mph N/A   Haze
2:55 PM 37.4 °F 26.1 °F 10.4 °F 33% 29.73 in 7.0 mi WSW 24.2 mph 46.0 mph N/A   Clear
3:15 PM 37.4 °F 24.0 °F 8.6 °F 30% 29.73 in 6.0 mi WSW 35.7 mph 43.7 mph N/A   Haze
3:35 PM 37.4 °F 25.2 °F 6.8 °F 28% 29.74 in 7.0 mi WSW 28.8 mph 43.7 mph N/A   Clear
3:55 PM 35.6 °F 22.7 °F 6.8 °F 30% 29.75 in 6.0 mi WSW 28.8 mph 40.3 mph N/A   Haze
4:15 PM 35.6 °F 23.7 °F 6.8 °F 30% 29.76 in 8.0 mi WSW 24.2 mph 39.1 mph N/A   Clear
4:35 PM 35.6 °F 23.7 °F 5.0 °F 28% 29.76 in 8.0 mi WSW 24.2 mph 33.4 mph N/A   Clear
4:55 PM 33.8 °F 23.5 °F 5.0 °F 30% 29.78 in 9.0 mi WSW 16.1 mph 34.5 mph N/A   Clear
5:15 PM 32.0 °F 21.6 °F 1.4 °F 27% 29.78 in 10.0 mi WSW 15.0 mph 25.3 mph N/A   Clear
5:35 PM 32.0 °F 22.1 °F 1.4 °F 27% 29.79 in 10.0 mi WSW 13.8 mph - N/A   Clear
5:55 PM 32.0 °F 22.5 °F -0.4 °F 25% 29.80 in 10.0 mi WSW 12.7 mph - N/A   Clear
6:15 PM 32.0 °F 21.6 °F 1.4 °F 27% 29.80 in 10.0 mi WSW 15.0 mph - N/A   Clear
6:35 PM 32.0 °F 20.8 °F 1.4 °F 27% 29.80 in 10.0 mi WSW 17.3 mph 26.5 mph N/A   Clear
6:55 PM 32.0 °F 20.5 °F -0.4 °F 25% 29.80 in 10.0 mi WSW 18.4 mph 31.1 mph N/A   Clear
7:15 PM 30.2 °F 18.9 °F -0.4 °F 27% 29.80 in 10.0 mi West 16.1 mph 21.9 mph N/A   Clear
7:35 PM 30.2 °F 20.8 °F -0.4 °F 27% 29.82 in 10.0 mi West 11.5 mph 17.3 mph N/A   Clear
8:15 PM 24.8 °F 20.5 °F -0.4 °F 34% 29.82 in 10.0 mi North 3.5 mph - N/A   Clear
8:55 PM 21.2 °F 16.4 °F -0.4 °F 39% 29.83 in 10.0 mi NE 3.5 mph - N/A   Clear
9:15 PM 19.4 °F 9.5 °F -0.4 °F 42% 29.83 in 10.0 mi NNE 8.1 mph - N/A   Clear
9:35 PM 19.4 °F 10.4 °F -0.4 °F 42% 29.83 in 10.0 mi NE 6.9 mph - N/A   Clear
9:55 PM 19.4 °F 10.4 °F -2.2 °F 39% 29.82 in 10.0 mi NNE 6.9 mph - N/A   Clear
10:15 PM 19.4 °F 11.5 °F -2.2 °F 39% 29.82 in 10.0 mi NE 5.8 mph - N/A   Clear
10:35 PM 17.6 °F 7.3 °F -0.4 °F 45% 29.82 in 10.0 mi NE 8.1 mph - N/A   Clear
11:15 PM 19.4 °F 10.4 °F -2.2 °F 39% 29.82 in 10.0 mi NNE 6.9 mph - N/A   Clear
11:35 PM 17.6 °F 9.3 °F -2.2 °F 42% 29.81 in 10.0 mi East 5.8 mph - N/A   Clear
11:55 PM 17.6 °F 9.3 °F -0.4 °F 45% 29.81 in 10.0 mi ENE 5.8 mph - N/A   Clear